Terminal Aerodrome Forecast
Issued by NWS Charleston, WV

Current Version | Previous Version | Graphics & Text | Print | Product List | Glossary On
Versions: 1 2 3 4 5 6 7 8 9 10 11 12 13 14 15 16 17 18 19 20 21 22 23 24
000
FTUS41 KRLX 131700
TAFPKB
TAF
KPKB 131729Z 1318/1418 24016G25KT P6SM SCT050
     FM140000 22007G22KT P6SM SCT100
     FM140800 19009G16KT P6SM BKN150
     FM141400 20013G23KT P6SM BKN250=

USA.gov is the U.S. government's official web portal to all federal, state and local government web resources and services.